[[{"header":{"parameterUnit":"m.s-1","parameterCategory":1,"la1":30.2992,"la2":30.254,"lo1":-89.0895,"lo2":-89.0443,"dy":0.0025,"dx":0.0025,"nx":19,"ny":19,"refTime":"2026-05-24T03:00:00:Z","depth":0,"parameterNumber":2,"parameterNumberName":"U-component_of_WINDS"},"data":[0,0,0,-0.5469,-0.5464,-0.5218,-0.5217,-0.4933,-0.4931,0,0,0,0,0,0,0,0,0,0,0,-0.5563,-0.5562,-0.5469,-0.5464,-0.5218,-0.5217,-0.4933,-0.4931,0,0,0,0,0,0,0,0,0,0,0,-0.5563,-0.5562,-0.5561,-0.5463,-0.5219,-0.5217,-0.4934,-0.5108,0,0,0,0,0,0,0,0,0,0,-0.5341,-0.5449,-0.5562,-0.5561,-0.5462,-0.5219,-0.5217,-0.5116,-0.5097,-0.5058,0,-0.5032,0,-0.4977,-0.4914,-0.4913,0,0,0,-0.5447,-0.5465,-0.538,-0.556,-0.546,-0.5219,-0.5324,-0.5105,-0.5084,-0.5034,-0.5027,-0.5016,-0.4973,-0.4912,-0.4911,-0.4748,-0.4748,0,0,-0.5461,-0.553,-0.5395,-0.5368,-0.541,-0.5332,-0.5317,-0.5092,-0.5089,-0.5026,-0.5009,-0.4968,-0.4911,-0.4909,-0.4748,-0.4748,0,0,0,-0.5511,-0.554,-0.5459,-0.538,-0.5334,-0.5326,-0.5308,-0.5098,-0.5066,-0.5005,-0.4965,-0.4909,-0.4906,-0.4748,-0.4748,-0.4817,0,0,0,-0.5518,-0.5569,-0.5466,-0.5506,-0.5339,-0.5214,-0.5321,-0.5082,-0.5054,-0.4966,-0.4909,-0.4904,-0.4748,-0.4748,-0.4815,-0.4838,0,0,0,-0.5572,-0.5575,-0.5547,-0.551,-0.5407,-0.5216,-0.517,-0.5075,-0.503,-0.4913,-0.4903,-0.4748,-0.4748,-0.4813,-0.4835,-0.4815,0,0,0,-0.5648,-0.5611,-0.5549,-0.5492,-0.541,-0.5261,-0.5171,-0.5056,-0.4964,-0.4908,-0.4748,-0.4748,-0.4812,-0.4833,-0.4814,-0.4812,-0.4818,0,0,-0.564,-0.5613,-0.5573,-0.551,-0.5391,-0.5293,-0.5181,-0.503,-0.4954,-0.482,-0.4815,-0.4816,-0.4834,-0.4815,-0.4825,-0.4831,0,0,0,-0.5594,-0.5567,-0.5519,-0.5436,-0.5321,-0.5223,-0.5082,-0.5025,-0.4908,-0.4901,-0.4801,-0.481,-0.4795,-0.4791,-0.4796,-0.4778,-0.4749,-0.4749,-0.4749,-0.5682,-0.5588,-0.5516,-0.5393,-0.5312,-0.5166,-0.5091,-0.499,-0.4918,-0.4896,-0.4856,-0.4874,-0.4872,-0.4874,-0.4858,-0.4847,-0.4847,-0.4847,-0.4847,-0.5662,-0.5608,-0.5513,-0.541,-0.531,-0.522,-0.5077,-0.5029,-0.4929,-0.4896,-0.4879,-0.4852,-0.4883,-0.4863,-0.4851,-0.4851,-0.485,-0.485,-0.4849,-0.571,-0.5668,-0.56,-0.5469,-0.5377,-0.5251,-0.516,-0.5071,-0.4986,-0.4969,-0.4916,-0.4915,-0.4902,-0.495,-0.495,-0.495,-0.495,-0.495,-0.495,-0.5787,-0.5709,-0.5644,-0.5518,-0.5452,-0.5352,-0.5204,-0.5135,-0.5035,-0.4977,-0.4976,-0.4907,-0.4904,-0.4905,-0.4951,-0.4951,-0.4951,-0.4951,-0.4951,-0.5803,-0.5785,-0.5686,-0.562,-0.5462,-0.5376,-0.5263,-0.513,-0.506,-0.5017,-0.4949,-0.4962,-0.4927,-0.4923,-0.4924,-0.4971,-0.4971,-0.4971,-0.4971,-0.5844,-0.5818,-0.5696,-0.5595,-0.5486,-0.5374,-0.5261,-0.5144,-0.502,-0.4969,-0.4949,-0.4942,-0.4942,-0.4906,-0.4903,-0.4902,-0.4942,-0.4942,-0.4942,-0.5848,-0.5807,-0.5731,-0.5611,-0.5481,-0.537,-0.5261,-0.5146,-0.5001,-0.4939,-0.4928,-0.4929,-0.4916,-0.4917,-0.4858,-0.4854,-0.485,0,0]},{"header":{"parameterUnit":"m.s-1","parameterCategory":1,"la1":30.2992,"la2":30.254,"lo1":-89.0895,"lo2":-89.0443,"dy":0.0025,"dx":0.0025,"nx":19,"ny":19,"refTime":"2026-05-24T03:00:00:Z","depth":0,"parameterNumber":3,"parameterNumberName":"V-component_of_WINDS"},"data":[0,0,0,-3.3054,-3.3058,-3.3276,-3.3277,-3.355,-3.3552,0,0,0,0,0,0,0,0,0,0,0,-3.2983,-3.2985,-3.3053,-3.3059,-3.3276,-3.3277,-3.3549,-3.3552,0,0,0,0,0,0,0,0,0,0,0,-3.2982,-3.2984,-3.2986,-3.3059,-3.3276,-3.3278,-3.3549,-3.3387,0,0,0,0,0,0,0,0,0,0,-3.3177,-3.3105,-3.2984,-3.2986,-3.3061,-3.3276,-3.3278,-3.338,-3.3397,-3.3448,0,-3.3489,0,-3.3525,-3.357,-3.3571,0,0,0,-3.3064,-3.309,-3.3154,-3.2986,-3.3063,-3.3276,-3.318,-3.339,-3.341,-3.3471,-3.3493,-3.3503,-3.3529,-3.3572,-3.3573,-3.3843,-3.3844,0,0,-3.3052,-3.3019,-3.314,-3.3167,-3.313,-3.3173,-3.3186,-3.3402,-3.3424,-3.3494,-3.351,-3.3534,-3.3573,-3.3575,-3.3842,-3.3843,0,0,0,-3.3014,-3.3011,-3.307,-3.3155,-3.3195,-3.3179,-3.3195,-3.3415,-3.3436,-3.3513,-3.3537,-3.3575,-3.3578,-3.3841,-3.3842,-3.3861,0,0,0,-3.3007,-3.2988,-3.3064,-3.3047,-3.3191,-3.3307,-3.3202,-3.3421,-3.3447,-3.3536,-3.3575,-3.3581,-3.384,-3.3842,-3.3858,-3.3875,0,0,0,-3.2971,-3.2984,-3.3014,-3.3044,-3.3137,-3.3304,-3.3339,-3.3428,-3.3461,-3.3571,-3.3581,-3.3839,-3.3841,-3.3855,-3.3871,-3.3937,0,0,0,-3.2924,-3.3027,-3.3013,-3.3139,-3.3135,-3.3313,-3.3338,-3.3473,-3.3569,-3.3576,-3.384,-3.3842,-3.3854,-3.3868,-3.3934,-3.3987,-3.4005,0,0,-3.3036,-3.3039,-3.3116,-3.311,-3.3282,-3.3283,-3.346,-3.3579,-3.362,-3.3767,-3.3774,-3.3859,-3.3871,-3.3936,-3.4121,-3.4136,0,0,0,-3.3141,-3.3195,-3.3248,-3.3337,-3.343,-3.3512,-3.3608,-3.3653,-3.3779,-3.3688,-3.3902,-3.391,-3.395,-3.3976,-3.3989,-3.4026,-3.3853,-3.3853,-3.3852,-3.3253,-3.3299,-3.3429,-3.3502,-3.3589,-3.3687,-3.3763,-3.384,-3.3862,-3.3912,-3.3955,-3.4062,-3.4092,-3.4101,-3.4139,-3.3987,-3.3987,-3.3987,-3.3987,-3.3422,-3.3506,-3.3533,-3.3669,-3.3718,-3.3834,-3.3934,-3.3946,-3.4062,-3.4032,-3.407,-3.4033,-3.4116,-3.4152,-3.3989,-3.3989,-3.3989,-3.3988,-3.3988,-3.35,-3.3549,-3.3601,-3.3736,-3.3836,-3.3908,-3.4018,-3.4059,-3.41,-3.4137,-3.4188,-3.4188,-3.4194,-3.4158,-3.4159,-3.4159,-3.416,-3.416,-3.416,-3.356,-3.3619,-3.3706,-3.3814,-3.3878,-3.3968,-3.4069,-3.4134,-3.4217,-3.4239,-3.424,-3.4258,-3.4115,-3.4078,-3.4166,-3.4165,-3.4164,-3.4164,-3.4163,-3.3714,-3.3686,-3.382,-3.3884,-3.4017,-3.4114,-3.4166,-3.4295,-3.4355,-3.4409,-3.442,-3.4307,-3.4314,-3.4304,-3.4274,-3.4408,-3.4408,-3.4408,-3.4408,-3.378,-3.3788,-3.3935,-3.4035,-3.4138,-3.4199,-3.4352,-3.4433,-3.4513,-3.4554,-3.4541,-3.4505,-3.4494,-3.4508,-3.4494,-3.4466,-3.4646,-3.4646,-3.4646,-3.3878,-3.3898,-3.4018,-3.4094,-3.4202,-3.4294,-3.444,-3.4556,-3.4641,-3.4657,-3.4588,-3.4578,-3.452,-3.4498,-3.4511,-3.4488,-3.4439,0,0]}]]